Retour au catalogue

THOR ABLESTAR DEB

ActifUNKNOWN
NORAD 4014·DEBRIS·🇺🇸 United States

Lancé Jun 29, 1961 depuis Cape Canaveral Space Force Station

Loading…

Prochains Passages (prochaines 24 heures)

TLE

FraisSource: Space-Track

Époque: Sep 13, 2026, 22:39 UTC

1  4014U 61015JM  26256.94392595  .00000121  00000-0  47534-3 0  9999
2  4014  67.6275  66.5313 0812801 287.9521 236.6265 12.30169325925280

Suivez THOR ABLESTAR DEB en temps réel avec AllMySat

Download on the App Store